Port Isabel, TX

5:19 AM CST on November 19, 2017 (GMT -0600)
Port Isabel-Cameron County

Weather History for KPIL - August, 2013

Change the Weather History Date:

Sunday, August 25, 2013

  Actual Average (KBRO) Record (KBRO)
Temperature  
Mean Temperature 84 °F -  
Max Temperature 90 °F 92 °F 99 °F (2005)
Min Temperature 77 °F 74 °F 65 °F (1891)
Cooling Degree Days 18    
Growing Degree Days 34 (Base 50)    
Moisture  
Dew Point 75 °F    
Average Humidity 73    
Maximum Humidity 93    
Minimum Humidity 59    
Precipitation  
Precipitation 0.00 in - - ()
Sea Level Pressure  
Sea Level Pressure 29.98 in    
Wind  
Wind Speed 6 mph (East)    
Max Wind Speed 15 mph    
Max Gust Speed 18 mph    
Visibility 10 miles    
Events Thunderstorm    
Averages and records for this station are not official NWS values.
T = Trace of Precipitation, MM = Missing Value Source: NWS Daily Summary

Daily Weather History Graph

Daily Weather History Graph

Search for Another Location

Airport or City:

Trip Planner

Search our weather history database for the weather conditions in past years. The results will help you decide how hot, cold, wet, or windy it might be!

Date:

Astronomy

Aug. 25, 2013 Rise Set
Actual Time 7:06 AM CDT 7:55 PM CDT
Civil Twilight 6:42 AM CDT 8:19 PM CDT
Nautical Twilight 6:14 AM CDT 8:47 PM CDT
Astronomical Twilight 5:46 AM CDT 9:15 PM CDT
Moon 11:04 PM CDT (8/25) 11:35 AM CDT (8/25)
Length of Visible Light 13h 36m
Length of Day
12h 49m
Waning Gibbous, 75% of the Moon is Illuminated
Aug 25
Waning Gibbous
Aug 28
Last Quarter
Sep 5
New
Sep 12
First Quarter
Sep 19
Full

Hourly Weather History & Observations

Time (CDT) Temp. Heat Index Dew Point Humidity Pressure Visibility Wind Dir Wind Speed Gust Speed Precip Events Conditions
12:13 AM 82.4 °F 90.9 °F 77.0 °F 84% 29.96 in 10.0 mi SE 4.6 mph - N/A   Scattered Clouds
12:53 AM 81.0 °F 87.9 °F 77.0 °F 88% 29.96 in 10.0 mi SE 4.6 mph - N/A   Clear
1:53 AM 79.0 °F - 75.9 °F 90% 29.95 in 10.0 mi Calm Calm - N/A   Clear
2:53 AM 78.1 °F - 75.9 °F 93% 29.95 in 10.0 mi Calm Calm - N/A   Clear
3:53 AM - - - N/A% 29.96 in 10.0 mi NNW 4.6 mph - N/A   Clear
4:53 AM 77.0 °F - 73.0 °F 88% 29.94 in 10.0 mi NNW 3.5 mph - N/A   Clear
5:53 AM 77.0 °F - 73.0 °F 88% 29.96 in 10.0 mi Calm Calm - N/A   Clear
6:53 AM 78.1 °F - 73.0 °F 84% 29.97 in 10.0 mi NW 4.6 mph - N/A   Clear
7:53 AM 79.0 °F - 75.0 °F 88% 29.98 in 10.0 mi NNE 5.8 mph - N/A   Partly Cloudy
8:53 AM 84.9 °F 93.3 °F 75.0 °F 72% 29.99 in 10.0 mi NNE 3.5 mph - N/A   Partly Cloudy
9:51 AM 87.8 °F 97.6 °F 75.2 °F 66% 29.99 in 10.0 mi Variable 6.9 mph - N/A   Mostly Cloudy
9:53 AM 86.0 °F 95.1 °F 75.0 °F 70% 30.00 in 10.0 mi East 5.8 mph - N/A   Mostly Cloudy
10:16 AM 87.8 °F 97.6 °F 75.2 °F 66% 30.00 in 10.0 mi ENE 10.4 mph 16.1 mph N/A   Scattered Clouds
10:53 AM 88.0 °F 98.5 °F 75.9 °F 67% 30.01 in 10.0 mi East 10.4 mph - N/A   Partly Cloudy
11:14 AM 87.8 °F 97.6 °F 75.2 °F 66% 30.01 in 10.0 mi ESE 10.4 mph - N/A Thunderstorm Partly Cloudy
11:43 AM 89.6 °F 99.8 °F 75.2 °F 62% 30.01 in 10.0 mi East 10.4 mph - N/A   Partly Cloudy
11:53 AM 89.1 °F 99.1 °F 75.0 °F 63% 30.01 in 10.0 mi East 9.2 mph - N/A   Partly Cloudy
12:53 PM 87.1 °F 95.4 °F 73.9 °F 65% 30.00 in 10.0 mi Variable 4.6 mph - N/A   Mostly Cloudy
1:02 PM 87.8 °F 95.6 °F 73.4 °F 62% 30.00 in 10.0 mi Variable 5.8 mph - N/A   Overcast
1:28 PM 89.6 °F 99.8 °F 75.2 °F 62% 29.99 in 10.0 mi East 12.7 mph 18.4 mph N/A   Scattered Clouds
1:53 PM 90.0 °F 100.2 °F 75.0 °F 61% 29.99 in 10.0 mi ENE 9.2 mph 18.4 mph N/A Thunderstorm Clear
2:02 PM 89.6 °F 99.8 °F 75.2 °F 62% 29.99 in 10.0 mi East 11.5 mph - N/A   Partly Cloudy
2:53 PM 90.0 °F 102.5 °F 77.0 °F 65% 29.98 in 10.0 mi East 15.0 mph - N/A   Partly Cloudy
3:53 PM 90.0 °F 99.0 °F 73.9 °F 59% 29.98 in 10.0 mi East 12.7 mph - N/A   Clear
4:53 PM 87.1 °F 95.4 °F 73.9 °F 65% 29.97 in 10.0 mi ESE 10.4 mph - N/A   Clear
5:53 PM 84.9 °F 93.3 °F 75.0 °F 72% 29.96 in 10.0 mi Variable 3.5 mph - N/A   Scattered Clouds
6:09 PM 86.0 °F 95.1 °F 75.2 °F 70% 29.97 in 10.0 mi ESE 12.7 mph - N/A   Mostly Cloudy
6:43 PM 84.2 °F 92.3 °F 75.2 °F 74% 29.96 in 10.0 mi ESE 11.5 mph - N/A   Scattered Clouds
6:53 PM 84.9 °F 93.3 °F 75.0 °F 72% 29.96 in 10.0 mi ESE 11.5 mph - N/A   Partly Cloudy
7:53 PM 84.0 °F 90.2 °F 73.0 °F 69% 29.98 in 10.0 mi SE 9.2 mph - N/A   Clear
8:53 PM 82.9 °F 90.2 °F 75.0 °F 77% 29.99 in 10.0 mi SE 8.1 mph - N/A   Clear
9:53 PM 82.9 °F 90.8 °F 75.9 °F 79% 29.99 in 10.0 mi ESE 6.9 mph - N/A   Clear
10:53 PM 82.9 °F 89.4 °F 73.9 °F 74% 30.00 in 10.0 mi ESE 9.2 mph - N/A   Clear
11:53 PM 82.9 °F 89.4 °F 73.9 °F 74% 30.00 in 10.0 mi SE 9.2 mph - N/A   Clear